[[{"header":{"parameterUnit":"m.s-1","parameterCategory":1,"la1":30.2991,"la2":30.254,"lo1":-89.0895,"lo2":-89.0444,"dx":0.0017,"dy":0.0017,"nx":28,"ny":28,"refTime":"2022-11-03T21:00:00:Z","depth":0,"parameterNumber":2,"parameterNumberName":"U-component_of_WINDS"},"data":[0,0,0,0,0,0,0,0,0,0,0,0,0,0,0,0,0,0,0,0,0,0,0,0,0,0,0,0,0,0,0,0,0,0,0,0,0,0,0,0,0,0,0,0,0,0,0,0,0,0,0,0,0,0,0,0,0,0,-2.2973,-2.2973,0,-2.2986,-2.2986,-2.2986,-2.291,-2.2908,-2.2906,-2.2904,-2.292,-2.2922,-2.2925,0,0,0,0,0,0,0,0,0,0,0,0,0,-2.2884,-2.2886,-2.2973,-2.2973,-2.2973,-2.2986,-2.2986,-2.2986,-2.2911,-2.2908,-2.2905,-2.2903,-2.2919,-2.2922,-2.2925,0,0,0,0,0,0,0,0,0,0,0,0,0,-2.2913,-2.2887,-2.2973,-2.2937,-2.2934,-2.2986,-2.2986,-2.2986,-2.2911,-2.2908,-2.2905,-2.2902,-2.2918,-2.2922,-2.2925,-2.3014,0,0,-2.2937,-2.2938,0,0,0,0,0,0,0,0,-2.2911,-2.2916,-2.2942,-2.2939,-2.2936,-2.2943,-2.2961,-2.2996,-2.2912,-2.292,-2.2904,-2.29,-2.293,-2.2933,-2.2943,-2.3014,-2.3015,-2.2937,-2.2939,-2.2941,-2.2942,0,0,0,0,0,0,0,-2.2909,-2.2915,-2.2978,-2.2942,-2.2939,-2.2921,-2.2921,-2.2967,-2.2943,-2.2919,-2.2913,-2.2916,-2.2928,-2.2939,-2.2942,-2.3015,-2.2937,-2.294,-2.2942,-2.2944,-2.3162,-2.3165,0,0,0,0,0,0,-2.2912,-2.2914,-2.2977,-2.2978,-2.2915,-2.2925,-2.2925,-2.2944,-2.2943,-2.2939,-2.2919,-2.2912,-2.2935,-2.2938,-2.2943,-2.3048,-2.2941,-2.2944,-2.2946,-2.3158,-2.3163,-2.3167,0,0,0,0,0,0,-2.291,-2.2918,-2.2977,-2.2945,-2.2951,-2.293,-2.2951,-2.2946,-2.2957,-2.2942,-2.2938,-2.2934,-2.2932,-2.2938,-2.2997,-2.3047,-2.2946,-2.2949,-2.3154,-2.316,-2.3165,-2.3257,0,0,0,0,0,0,-2.2908,-2.2918,-2.2951,-2.2946,-2.2953,-2.303,-2.2954,-2.2949,-2.2963,-2.2955,-2.2956,-2.2953,-2.293,-2.2992,-2.3001,-2.305,-2.2952,-2.315,-2.3157,-2.3163,-2.325,-2.3265,-2.3278,0,0,0,0,0,-2.2905,-2.2976,-2.2953,-2.2961,-2.2993,-2.3033,-2.3037,-2.3009,-2.2968,-2.3001,-2.2992,-2.2953,-2.304,-2.2998,-2.3008,-2.3059,-2.3146,-2.3155,-2.3162,-2.3243,-2.3262,-2.3278,0,0,0,0,0,0,-2.2988,-2.2975,-2.2949,-2.302,-2.3028,-2.302,-2.3061,-2.3029,-2.305,-2.3042,-2.3006,-2.3007,-2.3073,-2.3071,-2.3026,-2.3145,-2.3086,-2.3096,-2.3144,-2.3162,-2.3176,-2.3176,-2.2955,0,0,0,0,0,-2.3014,-2.3047,-2.3034,-2.3099,-2.3104,-2.3082,-2.3099,-2.3076,-2.3083,-2.3087,-2.3082,-2.3091,-2.3121,-2.3141,-2.3167,-2.3248,-2.3249,-2.3289,-2.3303,-2.3315,-2.3325,-2.337,-2.3388,-2.3193,-2.3193,-2.3193,0,0,-2.307,-2.3067,-2.309,-2.3116,-2.3119,-2.3155,-2.3086,-2.3126,-2.3154,-2.3093,-2.3149,-2.3146,-2.3154,-2.3225,-2.3256,-2.3226,-2.3378,-2.3325,-2.3335,-2.3338,-2.338,-2.3398,-2.3415,-2.3199,-2.3198,-2.3197,0,0,-2.319,-2.319,-2.3244,-2.3249,-2.3256,-2.3241,-2.3254,-2.3251,-2.3247,-2.3302,-2.3258,-2.329,-2.334,-2.3349,-2.336,-2.3484,-2.345,-2.3493,-2.3569,-2.3613,-2.3628,-2.3642,-2.3688,-2.3705,-2.3502,-2.3503,-2.3503,0,-2.3258,-2.331,-2.3277,-2.3321,-2.3334,-2.3281,-2.3337,-2.3343,-2.3358,-2.3369,-2.3335,-2.3399,-2.34,-2.3474,-2.3504,-2.3514,-2.353,-2.3494,-2.3629,-2.3642,-2.3654,-2.3698,-2.3715,-2.3508,-2.3508,-2.3507,-2.3506,0,-2.3395,-2.3432,-2.3475,-2.3491,-2.3509,-2.3559,-2.3534,-2.3557,-2.3533,-2.3522,-2.358,-2.358,-2.3606,-2.3621,-2.3598,-2.3692,-2.3673,-2.3634,-2.3574,-2.3679,-2.3719,-2.3736,-2.3516,-2.3514,-2.3512,-2.3511,0,0,-2.3568,-2.3565,-2.3582,-2.3589,-2.3592,-2.362,-2.3668,-2.3693,-2.3714,-2.3726,-2.3767,-2.3812,-2.3776,-2.3789,-2.3766,-2.3804,-2.3905,-2.3761,-2.3761,-2.379,-2.4011,-2.4042,-2.4062,-2.3882,-2.3885,-2.3887,-2.4012,0,-2.3687,-2.3768,-2.374,-2.3824,-2.3858,-2.3808,-2.385,-2.3858,-2.3849,-2.3878,-2.3868,-2.3901,-2.385,-2.3858,-2.3893,-2.3886,-2.395,-2.3876,-2.3921,-2.3923,-2.3923,-2.4083,-2.4116,-2.4233,-2.4027,-2.403,-2.4031,0,-2.3836,-2.3855,-2.3942,-2.394,-2.3954,-2.3992,-2.4014,-2.4041,-2.4049,-2.404,-2.4055,-2.4024,-2.4072,-2.4011,-2.4078,-2.4029,-2.4045,-2.4044,-2.4048,-2.4053,-2.3985,-2.4095,-2.4269,-2.4288,-2.4056,-2.4054,-2.4052,0,-2.3957,-2.4003,-2.4061,-2.4069,-2.4068,-2.4097,-2.4098,-2.4102,-2.4119,-2.4138,-2.415,-2.4174,-2.4188,-2.4208,-2.4186,-2.4142,-2.4257,-2.4193,-2.4253,-2.4254,-2.4281,-2.428,-2.4463,-2.4288,-2.4288,-2.4288,-2.4287,0,-2.4094,-2.415,-2.4116,-2.4152,-2.4214,-2.4181,-2.4243,-2.4239,-2.4243,-2.4279,-2.4236,-2.4271,-2.4238,-2.427,-2.4252,-2.4312,-2.4318,-2.4313,-2.4308,-2.4318,-2.4319,-2.433,-2.4323,-2.4292,-2.4291,-2.429,-2.429,0,-2.4239,-2.4219,-2.428,-2.4274,-2.4274,-2.432,-2.4315,-2.435,-2.4337,-2.4383,-2.4392,-2.4374,-2.4409,-2.4388,-2.4424,-2.4412,-2.4491,-2.4474,-2.4489,-2.4485,-2.4546,-2.4542,-2.4745,-2.4771,-2.4578,-2.4579,-2.4581,0,-2.4329,-2.4371,-2.437,-2.439,-2.4394,-2.4428,-2.4445,-2.4415,-2.4435,-2.4448,-2.4481,-2.4512,-2.4536,-2.4596,-2.4586,-2.4614,-2.4599,-2.4668,-2.4603,-2.4612,-2.4603,-2.4601,-2.4606,-2.4682,-2.4684,-2.4686,-2.4687,0,-2.4491,-2.4479,-2.4506,-2.453,-2.4552,-2.4569,-2.4582,-2.4602,-2.4572,-2.4597,-2.4632,-2.4651,-2.4688,-2.4721,-2.4744,-2.4746,-2.4713,-2.4708,-2.4723,-2.4735,-2.4743,-2.4742,-2.4527,-2.4704,-2.4702,-2.4701,-2.47,-2.4699,-2.4613,-2.4649,-2.4654,-2.4686,-2.4693,-2.4707,-2.4739,-2.4731,-2.476,-2.4788,-2.4768,-2.4811,-2.4818,-2.4847,-2.4854,-2.4887,-2.486,-2.4882,-2.4888,-2.4894,-2.4904,-2.4736,-2.4891,-2.4891,-2.489,-2.489,-2.4889,0,-2.4775,-2.4776,-2.4805,-2.4826,-2.4852,-2.4816,-2.483,-2.4854,-2.4892,-2.4901,-2.4926,-2.4968,-2.4999,-2.4993,-2.5022,-2.505,-2.5036,-2.5059,-2.5058,-2.506,-2.4926,-2.4911,-2.5071,-2.507,-2.507,-2.507,-2.507,-2.507,-2.4863,-2.4922,-2.4911,-2.4973,-2.4974,-2.5015,-2.5026,-2.504,-2.5047,-2.5096,-2.5122,-2.5117,-2.5121,-2.515,-2.5178,-2.5175,-2.5189,-2.5218,-2.5211,-2.5086,-2.5069,-2.5052,-2.5037,-2.5221,-2.5221,-2.5341,-2.5343,-2.5343]},{"header":{"parameterUnit":"m.s-1","parameterCategory":1,"la1":30.2991,"la2":30.254,"lo1":-89.0895,"lo2":-89.0444,"dx":0.0017,"dy":0.0017,"nx":28,"ny":28,"refTime":"2022-11-03T21:00:00:Z","depth":0,"parameterNumber":3,"parameterNumberName":"V-component_of_WINDS"},"data":[0,0,0,0,0,0,0,0,0,0,0,0,0,0,0,0,0,0,0,0,0,0,0,0,0,0,0,0,0,0,0,0,0,0,0,0,0,0,0,0,0,0,0,0,0,0,0,0,0,0,0,0,0,0,0,0,0,0,-1.6259,-1.6259,0,-1.6267,-1.6267,-1.6268,-1.6247,-1.6247,-1.6246,-1.6245,-1.6253,-1.6254,-1.6255,0,0,0,0,0,0,0,0,0,0,0,0,0,-1.6224,-1.6225,-1.6259,-1.6259,-1.6259,-1.6267,-1.6267,-1.6268,-1.6247,-1.6246,-1.6246,-1.6245,-1.6253,-1.6254,-1.6255,0,0,0,0,0,0,0,0,0,0,0,0,0,-1.6236,-1.6225,-1.6259,-1.625,-1.6249,-1.6267,-1.6267,-1.6268,-1.6247,-1.6246,-1.6245,-1.6245,-1.6253,-1.6254,-1.6255,-1.6282,0,0,-1.6259,-1.626,0,0,0,0,0,0,0,0,-1.6236,-1.6238,-1.6251,-1.6251,-1.625,-1.6255,-1.6258,-1.6272,-1.6248,-1.6248,-1.6245,-1.6244,-1.6255,-1.6256,-1.626,-1.6283,-1.6283,-1.6259,-1.626,-1.626,-1.6261,0,0,0,0,0,0,0,-1.6235,-1.6237,-1.6262,-1.6251,-1.6251,-1.6245,-1.6246,-1.6261,-1.6257,-1.6248,-1.6247,-1.6248,-1.6254,-1.6258,-1.626,-1.6283,-1.6259,-1.626,-1.6261,-1.6261,-1.6328,-1.6329,0,0,0,0,0,0,-1.6235,-1.6237,-1.6262,-1.6262,-1.624,-1.6247,-1.6247,-1.6254,-1.6257,-1.6256,-1.6249,-1.6247,-1.6257,-1.6258,-1.626,-1.6291,-1.626,-1.6262,-1.6262,-1.6327,-1.6328,-1.6329,0,0,0,0,0,0,-1.6235,-1.6238,-1.6262,-1.6249,-1.6252,-1.6248,-1.6256,-1.6255,-1.6259,-1.6257,-1.6256,-1.6254,-1.6256,-1.6258,-1.6277,-1.6291,-1.6262,-1.6263,-1.6326,-1.6327,-1.6329,-1.6354,0,0,0,0,0,0,-1.6234,-1.6238,-1.6248,-1.625,-1.6252,-1.6279,-1.6257,-1.6256,-1.6261,-1.6259,-1.6262,-1.6261,-1.6255,-1.6275,-1.6278,-1.6292,-1.6264,-1.6324,-1.6326,-1.6328,-1.6352,-1.6357,-1.636,0,0,0,0,0,-1.6232,-1.6255,-1.6249,-1.6252,-1.6266,-1.628,-1.6281,-1.6275,-1.6263,-1.6273,-1.6271,-1.6261,-1.6289,-1.6277,-1.628,-1.6295,-1.6323,-1.6326,-1.6328,-1.635,-1.6356,-1.636,0,0,0,0,0,0,-1.6256,-1.6255,-1.6248,-1.6272,-1.6276,-1.6276,-1.6289,-1.6281,-1.6288,-1.6286,-1.6277,-1.6277,-1.6298,-1.6298,-1.6285,-1.6321,-1.6304,-1.6307,-1.632,-1.6325,-1.6329,-1.6329,-1.6265,0,0,0,0,0,-1.6263,-1.6275,-1.6274,-1.6295,-1.6297,-1.6293,-1.6299,-1.6293,-1.6297,-1.6299,-1.6298,-1.6302,-1.6312,-1.6318,-1.6327,-1.6352,-1.6352,-1.6364,-1.6368,-1.6371,-1.6374,-1.6387,-1.6392,-1.6337,-1.6337,-1.6337,0,0,-1.628,-1.6281,-1.6289,-1.63,-1.6302,-1.6314,-1.6295,-1.6308,-1.6317,-1.6301,-1.6318,-1.6318,-1.6322,-1.6343,-1.6353,-1.6345,-1.6389,-1.6374,-1.6377,-1.6378,-1.6389,-1.6395,-1.6399,-1.6338,-1.6338,-1.6338,0,0,-1.6316,-1.6318,-1.6336,-1.6338,-1.6342,-1.6339,-1.6343,-1.6344,-1.6344,-1.6361,-1.6349,-1.6359,-1.6376,-1.6379,-1.6383,-1.6419,-1.6409,-1.6422,-1.6443,-1.6455,-1.646,-1.6464,-1.6476,-1.6481,-1.6424,-1.6424,-1.6425,0,-1.6336,-1.6354,-1.6346,-1.636,-1.6365,-1.635,-1.6368,-1.6371,-1.6377,-1.6381,-1.6371,-1.6391,-1.6393,-1.6415,-1.6424,-1.6427,-1.6431,-1.6422,-1.646,-1.6463,-1.6467,-1.6479,-1.6484,-1.6426,-1.6426,-1.6426,-1.6426,0,-1.6378,-1.639,-1.6404,-1.641,-1.6416,-1.6432,-1.6426,-1.6433,-1.6427,-1.6425,-1.6442,-1.6443,-1.6452,-1.6456,-1.6451,-1.6478,-1.6472,-1.6461,-1.6444,-1.6474,-1.6485,-1.6489,-1.6428,-1.6428,-1.6427,-1.6427,0,0,-1.6429,-1.6431,-1.6436,-1.6438,-1.6441,-1.645,-1.6465,-1.6473,-1.6479,-1.6484,-1.6496,-1.651,-1.65,-1.6504,-1.6498,-1.6509,-1.6537,-1.6497,-1.6497,-1.6504,-1.6567,-1.6575,-1.658,-1.6531,-1.6531,-1.6532,-1.6566,0,-1.6465,-1.649,-1.6483,-1.6509,-1.652,-1.6505,-1.6518,-1.6521,-1.6519,-1.6528,-1.6525,-1.6535,-1.6521,-1.6524,-1.6534,-1.6532,-1.655,-1.6529,-1.6542,-1.6542,-1.6541,-1.6586,-1.6595,-1.6627,-1.6571,-1.6571,-1.6572,0,-1.651,-1.6516,-1.6543,-1.6543,-1.6547,-1.6559,-1.6565,-1.6574,-1.6576,-1.6574,-1.6578,-1.657,-1.6584,-1.6567,-1.6586,-1.6572,-1.6576,-1.6576,-1.6577,-1.6578,-1.6559,-1.6588,-1.6637,-1.6642,-1.6579,-1.6578,-1.6578,0,-1.6545,-1.656,-1.6577,-1.658,-1.6581,-1.6589,-1.659,-1.6591,-1.6596,-1.6602,-1.6605,-1.6612,-1.6616,-1.6622,-1.6615,-1.6603,-1.6635,-1.6617,-1.6634,-1.6634,-1.6641,-1.6641,-1.6692,-1.6644,-1.6644,-1.6644,-1.6644,0,-1.6585,-1.6602,-1.6593,-1.6604,-1.6622,-1.6613,-1.6631,-1.663,-1.6631,-1.6642,-1.663,-1.6639,-1.663,-1.6639,-1.6634,-1.665,-1.6652,-1.665,-1.6649,-1.6652,-1.6652,-1.6655,-1.6652,-1.6645,-1.6645,-1.6645,-1.6644,0,-1.6628,-1.6622,-1.664,-1.6639,-1.6639,-1.6653,-1.6651,-1.6661,-1.6658,-1.6671,-1.6673,-1.6668,-1.6678,-1.6672,-1.6682,-1.6678,-1.6699,-1.6695,-1.6699,-1.6697,-1.6714,-1.6712,-1.6768,-1.6775,-1.6723,-1.6723,-1.6724,0,-1.6654,-1.6666,-1.6666,-1.6672,-1.6674,-1.6683,-1.6688,-1.668,-1.6685,-1.6689,-1.6698,-1.6707,-1.6713,-1.6729,-1.6726,-1.6733,-1.6729,-1.6748,-1.673,-1.6732,-1.6729,-1.6728,-1.6729,-1.6752,-1.6752,-1.6753,-1.6753,0,-1.6701,-1.6698,-1.6705,-1.6712,-1.6718,-1.6723,-1.6727,-1.6732,-1.6724,-1.6731,-1.674,-1.6745,-1.6755,-1.6763,-1.6769,-1.677,-1.676,-1.6759,-1.6763,-1.6766,-1.6767,-1.6767,-1.6709,-1.6758,-1.6757,-1.6757,-1.6757,-1.6756,-1.6736,-1.6746,-1.6748,-1.6757,-1.6758,-1.6762,-1.6771,-1.6769,-1.6776,-1.6784,-1.6778,-1.6789,-1.6791,-1.6798,-1.6799,-1.6808,-1.68,-1.6806,-1.6807,-1.6809,-1.6811,-1.6766,-1.6809,-1.6808,-1.6808,-1.6808,-1.6808,0,-1.6783,-1.6783,-1.6791,-1.6796,-1.6803,-1.6793,-1.6797,-1.6803,-1.6813,-1.6815,-1.6821,-1.6832,-1.684,-1.6837,-1.6844,-1.6852,-1.6847,-1.6854,-1.6853,-1.6854,-1.6818,-1.6814,-1.6857,-1.6857,-1.6857,-1.6857,-1.6857,-1.6857,-1.6808,-1.6824,-1.6821,-1.6838,-1.6838,-1.6848,-1.6851,-1.6854,-1.6856,-1.6868,-1.6875,-1.6873,-1.6873,-1.688,-1.6887,-1.6885,-1.6889,-1.6897,-1.6894,-1.6861,-1.6856,-1.6851,-1.6847,-1.6897,-1.6898,-1.6929,-1.6929,-1.693]}]]